CENTISPACE-1 S1 (43636 NORAD) Tracking and Keplerian Element Data

This shows tracking and keplerian element data for the satellite.

Feedback or suggestion? Click here.




ElementValue
Catalog43636
NameCENTISPACE-1 S1
Epoch Orbit435
Epoch Day302.09148486
Epoch Year2018
RAAN14.8107
Inclination98.2141
Eccentricity0.0011485
Argument of Perigee172.9738
Mean Anonmoly187.1622
Mean Motion14.57107406
Decay Rate8.2E-07
L11 43636U 18075A 18302.09148486 .00000082 00000-0 28250-4 0 9998
L22 43636 98.2141 14.8107 0011485 172.9738 187.1622 14.57107406 4350

Live tracking and technical data element details for CENTISPACE-1 S1 (NORAD 43636). CENTISPACE-1 S1 can be tracked NOW for your location showing map with azimuth and elevation plus other details from your city location.

Track the satellite on the map from your city or location and see movement details for azimuth, elevation, latitude, longitude, range, height, and movement on the map or in text.







IsCatalogInMostPopularTable: catalog: 43636, numindb: 35
Update: records affected: 1



GetName: 43636 CENTISPACE-1 S1

Hit Count: updated at: Tue, 20 Nov 2018 11:23:55 GMT